Time,TemperatureF,DewpointF,PressureIn,WindDirection,WindDirectionDegrees,WindSpeedMPH,WindSpeedGustMPH,Humidity,HourlyPrecipIn,Conditions,Clouds,dailyrainin,SoftwareType,DateUTC
2013-01-03 00:02:00,28.0,24.0,30.27,North,0,0.0,0.0,83,0.00,,,0.00,,2013-01-03 06:02:00,
2013-01-03 00:10:00,27.0,23.0,30.26,North,0,0.0,0.0,84,0.00,,,0.00,,2013-01-03 06:10:00,
2013-01-03 00:12:00,28.0,24.0,30.27,North,0,0.0,0.0,83,0.00,,,0.00,,2013-01-03 06:12:00,
2013-01-03 00:22:00,27.0,23.0,30.26,North,0,0.0,0.0,84,0.00,,,0.00,,2013-01-03 06:22:00,
2013-01-03 00:32:00,27.0,23.0,30.26,North,0,0.0,0.0,84,0.00,,,0.00,,2013-01-03 06:32:00,
2013-01-03 00:42:00,27.0,23.0,30.26,North,0,0.0,0.0,84,0.00,,,0.00,,2013-01-03 06:42:00,
2013-01-03 00:52:00,27.0,23.0,30.26,North,0,0.0,0.0,84,0.00,,,0.00,,2013-01-03 06:52:00,
2013-01-03 01:02:00,27.0,23.0,30.26,North,0,0.0,0.0,84,0.00,,,0.00,,2013-01-03 07:02:00,
2013-01-03 01:33:00,26.0,22.0,30.26,North,0,0.0,0.0,85,0.00,,,0.00,,2013-01-03 07:33:00,
2013-01-03 01:43:00,26.0,22.0,30.26,North,0,0.0,0.0,85,0.00,,,0.00,,2013-01-03 07:43:00,
2013-01-03 01:53:00,26.0,22.0,30.26,North,0,0.0,0.0,85,0.00,,,0.00,,2013-01-03 07:53:00,
2013-01-03 02:02:00,26.0,22.0,30.26,North,0,0.0,0.0,85,0.00,,,0.00,,2013-01-03 08:02:00,
2013-01-03 02:22:00,28.0,25.0,30.26,North,0,0.0,0.0,87,0.00,,,0.00,,2013-01-03 08:22:00,
2013-01-03 02:33:00,28.0,25.0,30.26,North,0,0.0,0.0,87,0.00,,,0.00,,2013-01-03 08:33:00,
2013-01-03 02:42:00,28.0,25.0,30.26,North,0,0.0,0.0,87,0.00,,,0.00,,2013-01-03 08:42:00,
2013-01-03 02:52:00,28.0,25.0,30.26,North,0,0.0,0.0,87,0.00,,,0.00,,2013-01-03 08:52:00,
2013-01-03 03:02:00,28.0,25.0,30.27,North,0,0.0,0.0,87,0.00,,,0.00,,2013-01-03 09:02:00,
2013-01-03 03:12:00,28.0,25.0,30.27,North,0,0.0,0.0,87,0.00,,,0.00,,2013-01-03 09:12:00,
2013-01-03 03:22:00,28.0,25.0,30.27,North,0,0.0,0.0,87,0.00,,,0.00,,2013-01-03 09:22:00,
2013-01-03 03:33:00,28.0,25.0,30.27,North,0,0.0,0.0,87,0.00,,,0.00,,2013-01-03 09:33:00,
2013-01-03 04:33:00,30.0,27.0,30.29,North,0,0.0,0.0,88,0.00,,,0.00,,2013-01-03 10:33:00,
2013-01-03 04:53:00,30.0,27.0,30.29,North,0,0.0,0.0,88,0.00,,,0.00,,2013-01-03 10:53:00,
2013-01-03 05:02:00,30.0,27.0,30.29,North,0,0.0,0.0,88,0.00,,,0.00,,2013-01-03 11:02:00,
2013-01-03 05:12:00,30.0,27.0,30.29,North,0,0.0,0.0,88,0.00,,,0.00,,2013-01-03 11:12:00,
2013-01-03 05:22:00,30.0,27.0,30.29,North,0,0.0,0.0,88,0.00,,,0.00,,2013-01-03 11:22:00,
2013-01-03 05:32:00,31.0,28.0,30.30,North,0,0.0,0.0,88,0.00,,,0.00,,2013-01-03 11:32:00,
2013-01-03 05:53:00,31.0,28.0,30.30,North,0,0.0,0.0,88,0.00,,,0.00,,2013-01-03 11:53:00,
2013-01-03 06:03:00,31.0,28.0,30.30,North,0,0.0,0.0,88,0.00,,,0.00,,2013-01-03 12:03:00,
2013-01-03 06:12:00,31.0,28.0,30.30,North,0,0.0,0.0,88,0.00,,,0.00,,2013-01-03 12:12:00,
2013-01-03 06:22:00,31.0,28.0,30.30,North,0,0.0,0.0,88,0.00,,,0.00,,2013-01-03 12:22:00,
2013-01-03 08:33:00,32.0,28.0,30.34,North,0,0.0,0.0,86,0.00,,,0.00,,2013-01-03 14:33:00,
2013-01-03 08:43:00,32.0,28.0,30.34,North,0,0.0,0.0,86,0.00,,,0.00,,2013-01-03 14:43:00,
2013-01-03 08:53:00,32.0,28.0,30.35,North,0,0.0,0.0,86,0.00,,,0.00,,2013-01-03 14:53:00,
2013-01-03 09:03:00,32.0,28.0,30.34,North,0,0.0,0.0,85,0.00,,,0.00,,2013-01-03 15:03:00,
2013-01-03 09:12:00,32.0,28.0,30.34,North,0,0.0,0.0,85,0.00,,,0.00,,2013-01-03 15:12:00,
2013-01-03 09:22:00,32.0,28.0,30.34,North,0,0.0,0.0,85,0.00,,,0.00,,2013-01-03 15:22:00,
2013-01-03 09:33:00,32.0,28.0,30.34,North,0,0.0,0.0,85,0.00,,,0.00,,2013-01-03 15:33:00,
2013-01-03 12:03:00,40.0,30.0,30.38,North,0,0.0,0.0,66,0.00,,,0.00,,2013-01-03 18:03:00,
2013-01-03 12:13:00,40.0,30.0,30.38,North,0,0.0,0.0,66,0.00,,,0.00,,2013-01-03 18:13:00,
2013-01-03 12:22:00,40.0,30.0,30.38,North,0,0.0,0.0,66,0.00,,,0.00,,2013-01-03 18:22:00,
2013-01-03 12:33:00,40.0,30.0,30.38,North,0,0.0,0.0,66,0.00,,,0.00,,2013-01-03 18:33:00,
2013-01-03 12:40:00,41.0,30.0,30.35,North,0,0.0,0.0,65,0.00,,,0.00,,2013-01-03 18:40:00,
2013-01-03 13:03:00,41.0,30.0,30.35,North,0,0.0,0.0,65,0.00,,,0.00,,2013-01-03 19:03:00,
2013-01-03 13:12:00,41.0,30.0,30.35,North,0,0.0,0.0,65,0.00,,,0.00,,2013-01-03 19:12:00,
2013-01-03 15:38:00,43.0,32.0,30.32,North,0,0.0,0.0,64,0.00,,,0.00,,2013-01-03 21:38:00,
2013-01-03 15:50:00,43.0,32.0,30.32,North,0,0.0,0.0,64,0.00,,,0.00,,2013-01-03 21:50:00,
2013-01-03 16:03:00,43.0,32.0,30.32,North,0,0.0,0.0,64,0.00,,,0.00,,2013-01-03 22:03:00,
2013-01-03 17:22:00,41.0,29.0,30.33,North,0,0.0,0.0,63,0.00,,,0.00,,2013-01-03 23:22:00,
2013-01-03 17:33:00,41.0,29.0,30.33,North,0,0.0,0.0,63,0.00,,,0.00,,2013-01-03 23:33:00,
2013-01-03 17:43:00,41.0,29.0,30.33,North,0,0.0,0.0,63,0.00,,,0.00,,2013-01-03 23:43:00,
2013-01-03 17:52:00,41.0,29.0,30.33,North,0,0.0,0.0,63,0.00,,,0.00,,2013-01-03 23:52:00,
2013-01-03 18:03:00,41.0,30.0,30.34,North,0,0.0,0.0,65,0.00,,,0.00,,2013-01-04 00:03:00,
2013-01-03 18:12:00,41.0,30.0,30.34,North,0,0.0,0.0,65,0.00,,,0.00,,2013-01-04 00:12:00,
2013-01-03 18:22:00,41.0,30.0,30.34,North,0,0.0,0.0,65,0.00,,,0.00,,2013-01-04 00:22:00,
2013-01-03 18:32:00,41.0,30.0,30.34,North,0,0.0,0.0,65,0.00,,,0.00,,2013-01-04 00:32:00,
2013-01-03 18:42:00,41.0,30.0,30.34,North,0,0.0,0.0,65,0.00,,,0.00,,2013-01-04 00:42:00,
2013-01-03 19:22:00,40.0,31.0,30.35,North,0,0.0,0.0,69,0.00,,,0.00,,2013-01-04 01:22:00,
2013-01-03 19:33:00,40.0,31.0,30.35,North,0,0.0,0.0,69,0.00,,,0.00,,2013-01-04 01:33:00,
2013-01-03 19:42:00,40.0,31.0,30.35,North,0,0.0,0.0,69,0.00,,,0.00,,2013-01-04 01:42:00,
2013-01-03 19:52:00,40.0,31.0,30.35,North,0,0.0,0.0,69,0.00,,,0.00,,2013-01-04 01:52:00,
2013-01-03 20:02:00,40.0,31.0,30.35,North,0,0.0,0.0,70,0.00,,,0.00,,2013-01-04 02:02:00,
2013-01-03 20:12:00,40.0,31.0,30.35,North,0,0.0,0.0,70,0.00,,,0.00,,2013-01-04 02:12:00,
2013-01-03 20:22:00,40.0,31.0,30.35,North,0,0.0,0.0,70,0.00,,,0.00,,2013-01-04 02:22:00,
2013-01-03 20:32:00,40.0,31.0,30.35,North,0,0.0,0.0,70,0.00,,,0.00,,2013-01-04 02:32:00,
2013-01-03 20:42:00,40.0,31.0,30.35,North,0,0.0,0.0,70,0.00,,,0.00,,2013-01-04 02:42:00,
2013-01-03 20:53:00,40.0,31.0,30.34,North,0,0.0,0.0,71,0.00,,,0.00,,2013-01-04 02:53:00,
2013-01-03 21:02:00,40.0,31.0,30.34,North,0,0.0,0.0,71,0.00,,,0.00,,2013-01-04 03:02:00,
2013-01-03 21:12:00,40.0,31.0,30.34,North,0,0.0,0.0,71,0.00,,,0.00,,2013-01-04 03:12:00,
2013-01-03 21:22:00,40.0,31.0,30.34,North,0,0.0,0.0,71,0.00,,,0.00,,2013-01-04 03:22:00,
2013-01-03 21:33:00,40.0,32.0,30.34,North,0,0.0,0.0,73,0.00,,,0.00,,2013-01-04 03:33:00,
2013-01-03 21:43:00,40.0,32.0,30.34,North,0,0.0,0.0,73,0.00,,,0.00,,2013-01-04 03:43:00,
2013-01-03 21:53:00,40.0,32.0,30.36,North,0,0.0,0.0,73,0.00,,,0.00,,2013-01-04 03:53:00,
2013-01-03 22:02:00,39.0,31.0,30.36,North,0,0.0,0.0,73,0.00,,,0.00,,2013-01-04 04:02:00,
2013-01-03 22:12:00,39.0,31.0,30.36,North,0,0.0,0.0,73,0.00,,,0.00,,2013-01-04 04:12:00,
2013-01-03 22:20:00,39.0,31.0,30.34,North,0,0.0,0.0,73,0.00,,,0.00,,2013-01-04 04:20:00,
2013-01-03 22:22:00,39.0,31.0,30.35,North,0,0.0,0.0,73,0.00,,,0.00,,2013-01-04 04:22:00,
2013-01-03 22:32:00,39.0,31.0,30.35,North,0,0.0,0.0,73,0.00,,,0.00,,2013-01-04 04:32:00,
2013-01-03 22:42:00,39.0,31.0,30.35,North,0,0.0,0.0,73,0.00,,,0.00,,2013-01-04 04:42:00,
2013-01-03 22:52:00,39.0,31.0,30.34,North,0,0.0,0.0,73,0.00,,,0.00,,2013-01-04 04:52:00,
2013-01-03 23:03:00,39.0,31.0,30.34,North,0,0.0,0.0,73,0.00,,,0.00,,2013-01-04 05:03:00,
2013-01-03 23:12:00,39.0,31.0,30.34,North,0,0.0,0.0,73,0.00,,,0.00,,2013-01-04 05:12:00,
2013-01-03 23:33:00,39.0,31.0,30.35,North,0,0.0,0.0,74,0.00,,,0.00,,2013-01-04 05:33:00,
2013-01-03 23:42:00,39.0,31.0,30.35,North,0,0.0,0.0,74,0.00,,,0.00,,2013-01-04 05:42:00,
2013-01-03 23:53:00,39.0,32.0,30.35,North,0,0.0,0.0,75,0.00,,,0.00,,2013-01-04 05:53:00,